Theta_e
340 353 363 359 359 359 360 359 361 362 362 362 362 363 363 363 362 361 359 359 359 357 357 358 359 359 359 359 359 360 360 360 360 359 358 358 358 359 360 357 357 354 358
347 355 363 359 360 359 359 360 361 360 361 361 361 361 361 361 361 360 358 357 357 354 353 355 356 357 358 357 358 359 359 360 360 358 357 357 357 358 357 357 356 354 357
350 356 359 359 361 358 359 359 360 360 360 360 359 359 359 360 358 357 358 358 356 354 353 352 354 355 355 356 357 358 357 357 358 357 356 352 353 356 356 356 355 355 355
352 356 356 359 361 359 359 359 360 360 359 359 358 357 356 357 358 357 358 359 357 356 354 352 354 354 355 355 356 356 357 357 357 354 350 347 351 356 356 356 355 356 354
352 355 354 359 361 360 358 359 360 360 359 358 357 357 356 357 359 360 360 359 356 355 354 353 352 354 355 356 355 355 354 354 353 349 347 346 352 354 355 355 355 354 354
353 354 356 358 361 360 358 357 359 359 359 358 357 357 357 357 359 360 360 360 359 355 355 355 354 356 356 355 356 356 356 352 349 346 349 351 349 354 353 353 354 353 353
351 354 356 360 361 359 357 357 358 359 360 359 358 358 359 359 360 360 360 360 360 358 355 355 355 357 356 356 356 356 356 349 341 344 346 348 350 352 351 352 352 352 352
350 355 354 361 361 359 358 359 359 360 360 360 359 360 359 360 360 361 360 360 361 361 358 357 358 356 355 355 355 355 357 348 342 343 346 349 352 350 349 350 350 351 352
351 354 355 356 357 359 359 359 359 359 359 359 359 359 359 359 360 359 358 360 360 359 359 357 356 354 353 353 354 355 356 357 340 344 347 348 352 350 349 349 349 350 349
350 354 353 354 353 354 354 357 359 359 359 360 359 359 359 359 358 358 356 357 357 357 357 356 355 354 353 355 355 356 353 350 340 345 346 347 350 349 349 348 347 347 346
345 349 353 351 351 351 351 352 358 358 357 359 358 358 356 352 353 353 352 355 356 355 355 356 355 355 354 354 355 357 357 344 343 344 345 349 350 349 349 348 347 347 346
341 346 350 351 351 350 351 349 350 352 352 353 352 353 349 347 348 349 350 354 356 356 355 355 356 356 355 350 353 354 348 343 342 343 344 349 351 350 350 349 349 348 348
340 344 347 348 349 348 348 349 348 348 350 350 350 349 346 345 345 345 344 346 349 352 349 353 353 352 350 346 351 348 348 345 345 344 345 352 353 351 351 350 350 349 349
340 342 347 346 347 346 346 348 347 348 350 348 348 346 343 340 339 339 339 339 343 345 346 345 346 348 347 345 348 345 347 346 346 345 347 354 354 353 352 351 351 350 349
337 341 343 345 346 343 345 347 345 346 347 347 346 345 342 339 337 337 337 338 340 343 342 341 341 343 345 343 346 345 344 344 344 345 350 355 355 355 354 353 352 351 351
333 338 343 344 344 342 345 346 344 343 346 343 344 344 343 339 337 337 337 338 339 341 341 340 339 339 342 343 344 345 343 342 340 343 348 354 355 355 356 354 353 353 352
332 336 340 342 342 340 342 343 341 342 343 342 342 342 343 340 337 337 336 337 339 340 341 339 337 338 340 342 342 344 342 341 339 340 342 350 354 356 356 357 356 356 354
332 334 338 342 338 338 339 339 340 340 340 340 340 340 342 341 340 338 336 336 338 340 339 338 337 336 338 338 340 342 342 341 341 341 343 346 353 354 356 355 357 358 358
331 333 335 336 336 337 338 337 336 338 338 339 339 338 339 342 342 340 339 340 338 338 338 337 336 338 336 336 337 339 341 341 340 343 346 348 350 352 353 353 354 355 355
332 331 332 334 333 334 335 335 335 335 337 339 337 339 339 339 342 340 340 339 338 336 336 336 336 336 336 337 337 337 338 340 340 343 345 348 346 347 347 348 353 351 350
330 330 330 330 331 333 333 331 331 331 333 335 337 338 340 342 341 342 341 340 338 336 334 336 334 332 335 336 337 336 336 337 337 340 343 343 342 343 343 345 346 345 346
326 328 328 328 330 333 334 335 335 333 335 335 333 333 336 336 338 338 336 336 336 334 332 332 333 332 333 338 330 328 326 330 334 338 341 341 340 340 340 341 342 341 342
321 322 323 324 326 328 330 336 336 337 334 332 332 332 333 335 335 333 334 333 333 330 330 330 329 328 325 329 332 326 321 320 328 334 335 338 339 338 340 340 337 337 338
315 317 317 317 320 323 323 328 331 331 330 329 329 329 332 333 332 334 333 333 332 332 329 330 330 327 326 323 325 332 328 324 321 321 331 334 336 334 335 335 335 335 334
313 313 313 314 313 314 316 320 323 321 321 321 321 320 321 320 319 322 323 328 330 330 330 330 329 328 328 326 324 327 329 327 324 321 320 326 330 332 334 333 333 332 331
311 311 310 310 310 312 312 312 314 313 314 313 314 314 314 314 315 314 317 317 318 320 323 327 328 327 326 326 327 327 326 325 323 323 320 322 324 329 333 333 330 329 330
Wind_Speed
7 9 18 19 18 17 18 19 18 18 19 19 18 17 17 17 15 14 13 12 12 12 13 13 14 15 17 17 17 15 13 14 15 17 15 15 16 16 16 16 16 14 16
15 12 19 20 18 19 18 19 18 17 18 18 18 17 16 15 15 14 13 13 12 12 12 13 13 14 15 16 16 15 14 13 14 16 15 14 15 15 17 16 15 14 15
15 11 16 21 18 19 19 18 18 18 17 17 17 16 16 15 15 13 13 12 12 12 12 13 13 14 15 16 16 16 15 15 15 15 14 9 10 14 16 16 15 15 14
15 12 14 22 19 19 19 18 17 18 17 17 16 16 16 16 15 14 13 12 13 12 13 13 14 14 15 15 15 14 15 15 15 12 6 8 10 14 14 15 14 15 14
13 11 13 21 19 19 20 19 18 17 16 16 16 16 16 16 14 13 12 12 13 13 13 13 13 14 14 15 15 12 10 12 12 8 8 5 7 12 14 14 14 14 12
13 11 18 21 19 19 19 19 18 17 16 15 15 15 15 15 13 12 11 11 12 13 13 12 12 11 12 12 11 10 10 12 11 7 7 9 5 12 13 13 14 14 12
16 10 13 19 18 18 19 19 18 16 16 15 14 14 13 12 13 11 11 11 12 13 12 12 11 8 10 10 9 8 9 13 8 7 6 6 6 9 12 13 13 13 12
17 10 12 17 18 17 17 17 16 16 15 14 13 13 12 11 11 10 9 10 10 12 12 10 8 7 7 7 6 7 8 13 9 8 6 6 9 9 10 12 12 11 11
16 11 10 11 14 17 16 16 15 14 14 13 13 12 11 10 10 9 8 8 10 11 10 8 6 5 5 4 4 3 5 12 8 6 8 5 11 12 10 10 10 10 10
14 11 9 10 10 9 10 16 15 14 13 12 11 11 11 10 8 8 8 7 8 8 8 8 6 5 4 3 3 3 10 13 8 8 6 5 11 13 13 10 10 10 10
10 11 11 9 8 8 7 11 14 16 14 13 11 10 6 2 4 5 6 5 6 7 7 7 7 5 5 4 4 5 10 4 6 5 4 12 12 12 13 13 12 11 10
12 11 9 10 11 8 8 8 6 8 5 5 5 5 3 3 3 3 4 5 5 5 6 6 7 6 5 3 2 6 3 5 6 6 5 15 14 14 13 13 13 12 11
18 11 12 12 13 9 7 5 3 3 4 3 5 4 4 3 1 1 0 1 0 3 1 3 3 3 4 3 3 3 5 6 4 5 8 15 14 16 15 14 13 12 12
15 16 13 10 12 6 4 5 5 5 6 4 4 5 4 2 3 2 1 2 2 1 1 1 2 3 4 4 4 5 6 6 5 5 8 17 15 16 16 14 14 13 12
12 12 14 9 10 6 8 6 4 4 6 5 5 5 4 3 3 3 3 2 2 2 2 3 3 4 4 4 5 6 6 6 7 4 4 16 15 15 16 16 15 14 13
8 11 11 11 9 7 7 10 6 3 6 3 3 4 6 4 3 3 3 4 3 3 3 3 3 4 5 4 5 6 6 5 4 5 6 8 16 16 16 16 17 16 15
6 8 8 8 6 7 5 8 4 3 4 3 4 5 6 5 5 5 4 3 4 4 4 3 4 3 4 4 6 5 4 6 5 6 5 5 9 15 17 17 17 17 16
7 8 9 9 7 7 7 5 3 3 3 2 3 3 6 7 6 5 4 5 4 3 4 4 4 4 4 5 5 5 5 5 8 7 7 7 7 8 13 17 16 16 16
8 9 10 8 10 9 6 5 4 3 2 1 2 3 4 6 6 6 5 3 2 3 2 3 3 4 4 5 6 4 5 6 6 6 9 10 9 8 6 15 15 13 12
4 7 9 8 8 7 5 4 2 3 4 3 3 5 5 5 5 5 4 4 4 3 2 2 3 3 3 6 5 4 4 4 4 7 7 7 6 7 6 5 5 6 9
8 6 5 7 6 6 3 3 2 2 2 3 2 1 2 2 5 5 4 4 3 5 5 4 2 2 2 1 1 2 2 4 6 6 5 6 6 7 5 5 5 5 5
8 7 7 6 5 3 3 3 3 4 2 2 2 3 3 4 3 3 3 4 1 3 3 5 3 1 1 3 0 1 2 3 6 7 6 8 9 5 7 8 8 8 6
8 7 7 7 7 6 3 3 3 5 4 3 2 1 4 3 4 4 3 4 1 1 5 2 2 6 1 2 1 1 3 3 3 3 9 7 8 8 7 8 7 6 8
5 5 7 7 7 6 6 4 3 2 3 3 3 3 2 5 6 4 0 2 3 2 3 4 3 5 7 4 2 4 5 4 4 5 2 6 8 8 8 6 8 8 9
5 5 6 8 8 7 8 7 6 6 5 4 4 6 5 6 7 7 6 5 4 4 4 5 5 5 4 3 6 3 5 4 4 5 3 3 3 5 5 7 8 8 9
5 6 6 8 8 8 9 10 10 8 5 5 6 4 4 4 5 7 7 6 5 5 6 4 5 4 4 4 4 7 8 5 5 8 12 10 8 3 5 5 7 8 9
Wind_Direction
166 169 149 147 139 132 123 117 111 107 106 107 110 113 115 118 123 121 118 109 100 102 103 101 97 96 100 101 99 96 99 108 105 100 101 98 99 95 94 93 94 94 93
138 157 150 150 142 135 127 123 118 113 110 108 109 111 115 120 121 121 122 115 112 111 108 106 105 106 108 108 105 97 100 109 105 105 105 102 100 97 100 98 95 97 97
137 153 150 152 143 136 129 125 121 117 116 115 117 119 121 121 121 124 122 120 120 117 112 111 113 115 116 116 113 105 100 104 104 103 98 97 101 103 103 104 102 101 99
140 147 155 152 144 139 132 129 124 123 123 123 124 125 126 128 131 131 131 129 126 122 117 115 118 119 118 119 113 111 109 109 106 105 108 103 106 109 107 106 104 102 100
138 140 158 153 145 142 137 133 129 127 127 129 131 132 133 133 135 137 135 132 129 124 119 121 125 128 128 128 122 106 108 112 110 93 85 87 85 110 111 112 109 104 108
136 139 161 156 146 143 140 138 135 134 134 134 136 135 137 140 139 138 137 135 131 126 125 128 130 132 133 136 138 132 119 128 118 110 97 96 96 113 116 115 113 112 112
147 147 156 153 147 145 145 143 140 139 138 139 141 142 143 143 144 144 145 143 136 129 131 136 135 141 143 156 153 149 135 136 130 121 117 112 121 125 127 123 119 118 120
148 144 155 150 149 147 148 147 144 142 142 145 148 147 148 149 149 149 155 150 143 138 139 148 152 163 163 163 152 154 156 147 140 136 138 135 133 136 137 133 131 131 127
147 139 146 150 153 151 149 149 148 148 149 152 152 152 154 156 151 150 144 140 132 137 136 144 129 133 147 160 163 173 168 157 146 148 147 155 145 146 144 145 143 140 141
151 146 142 146 148 146 152 153 153 154 154 155 156 158 158 159 157 153 152 151 140 141 137 139 145 159 160 180 173 176 144 152 154 158 154 164 162 155 153 157 153 149 149
161 160 154 143 145 143 144 158 158 160 159 160 163 164 150 134 151 166 164 175 157 154 160 158 153 186 181 193 204 167 162 148 150 161 164 173 170 168 163 164 162 160 159
168 169 156 155 157 151 157 157 151 162 151 148 154 157 140 153 157 170 194 199 187 183 177 180 168 200 199 179 187 176 165 165 165 168 178 179 176 176 175 174 172 169 170
169 174 170 166 168 161 157 151 151 144 142 148 160 152 147 145 156 129 258 302 260 234 205 196 204 202 217 203 180 192 186 175 175 175 188 184 186 182 184 182 183 180 179
173 177 170 162 166 159 140 158 158 160 171 169 166 158 155 157 180 195 215 253 270 240 209 214 239 235 225 221 204 205 197 189 183 185 195 186 193 189 190 192 189 190 189
180 179 180 164 167 152 154 165 161 171 186 183 167 171 164 176 191 188 204 220 232 242 205 203 220 249 237 223 212 209 203 212 200 182 195 194 194 198 194 193 200 195 200
177 182 174 174 165 150 167 179 178 165 189 175 179 183 183 182 193 206 202 212 217 207 223 220 215 212 236 225 227 219 217 208 216 205 195 202 202 201 201 197 202 203 206
175 163 173 166 157 149 156 184 156 172 177 192 200 190 195 196 200 205 221 228 221 194 206 222 233 207 224 223 225 209 201 212 214 230 236 215 211 214 202 204 205 206 207
153 167 165 177 173 163 163 168 166 172 173 207 237 214 206 207 205 210 217 231 220 201 189 206 212 221 220 204 224 208 202 206 214 222 221 226 216 211 217 211 214 214 215
159 157 171 172 184 179 160 152 158 170 144 243 239 247 239 223 218 218 229 253 176 221 221 241 223 201 210 212 215 205 198 201 204 211 222 212 210 207 218 220 212 219 225
133 161 166 174 169 158 136 129 168 154 213 231 230 219 223 228 218 210 235 225 171 153 132 182 209 221 289 245 190 175 202 221 202 207 222 220 218 216 208 184 171 194 200
62 93 143 160 168 143 128 140 145 182 217 253 201 148 188 219 226 224 223 207 176 148 143 153 133 191 287 355 343 155 189 200 216 220 196 214 227 224 211 186 188 190 211
59 61 68 81 84 138 164 168 171 171 179 132 95 66 59 84 78 62 320 301 216 119 121 118 139 142 352 48 36 59 292 245 228 209 204 211 214 217 210 208 195 188 194
61 56 58 63 64 46 14 126 95 93 97 107 115 35 14 28 67 67 109 177 145 226 133 251 152 131 96 16 10 17 318 280 299 188 218 214 206 211 205 208 218 206 201
67 64 69 57 60 49 35 58 58 88 117 71 67 54 342 355 22 7 3 244 230 193 170 204 202 175 134 230 255 196 181 180 296 328 276 226 208 213 211 206 212 213 213
96 79 72 77 61 50 60 66 75 79 79 88 77 70 42 20 27 28 21 0 302 274 255 239 213 215 240 255 226 179 204 212 170 218 253 306 253 235 222 217 217 216 217
103 97 88 86 73 64 70 73 84 86 84 85 70 65 47 35 25 15 23 21 16 10 355 316 281 284 267 234 222 222 224 225 214 222 245 252 277 286 238 221 224 223 219